Year,Month,Day,Hour,Minute,Value (Times are PST for windspeed in km/hr)
2010,01,18,00,00,0.50
2010,01,18,00,01,3.20
2010,01,18,00,02,8.70
2010,01,18,00,03,5.00
2010,01,18,00,04,2.80
2010,01,18,00,05,7.30
2010,01,18,00,06,9.70
2010,01,18,00,07,2.70
2010,01,18,00,08,4.80
2010,01,18,00,09,8.30
2010,01,18,00,10,4.60
2010,01,18,00,11,3.40
2010,01,18,00,12,3.70
2010,01,18,00,13,5.90
2010,01,18,00,14,7.80
2010,01,18,00,15,4.40
2010,01,18,00,16,1.20
2010,01,18,00,17,2.10
2010,01,18,00,18,5.20
2010,01,18,00,19,3.70
2010,01,18,00,20,11.30
2010,01,18,00,21,10.30
2010,01,18,00,22,10.90
2010,01,18,00,23,6.60
2010,01,18,00,24,12.40
2010,01,18,00,25,6.00
2010,01,18,00,26,8.30
2010,01,18,00,27,9.00
2010,01,18,00,28,16.90
2010,01,18,00,29,14.80
2010,01,18,00,30,12.90
2010,01,18,00,31,12.50
2010,01,18,00,32,8.60
2010,01,18,00,33,5.90
2010,01,18,00,34,9.20
2010,01,18,00,35,13.40
2010,01,18,00,36,10.90
2010,01,18,00,37,14.10
2010,01,18,00,38,20.20
2010,01,18,00,39,10.70
2010,01,18,00,40,6.40
2010,01,18,00,41,4.10
2010,01,18,00,42,14.10
2010,01,18,00,43,20.00
2010,01,18,00,44,8.60
2010,01,18,00,45,8.50
2010,01,18,00,46,14.60
2010,01,18,00,47,13.20
2010,01,18,00,48,7.70
2010,01,18,00,49,7.30
2010,01,18,00,50,11.60
2010,01,18,00,51,7.80
2010,01,18,00,52,2.80
2010,01,18,00,53,3.30
2010,01,18,00,54,14.70
2010,01,18,00,55,15.00
2010,01,18,00,56,16.90
2010,01,18,00,57,4.70
2010,01,18,00,58,9.30
2010,01,18,00,59,7.30
2010,01,18,01,00,5.40
2010,01,18,01,01,5.40
2010,01,18,01,02,6.80
2010,01,18,01,03,13.90
2010,01,18,01,04,10.10
2010,01,18,01,05,15.10
2010,01,18,01,06,16.30
2010,01,18,01,07,14.90
2010,01,18,01,08,12.40
2010,01,18,01,09,11.10
2010,01,18,01,10,18.10
2010,01,18,01,11,12.30
2010,01,18,01,12,11.50
2010,01,18,01,13,14.50
2010,01,18,01,14,8.60
2010,01,18,01,15,7.10
2010,01,18,01,16,6.30
2010,01,18,01,17,11.70
2010,01,18,01,18,9.70
2010,01,18,01,19,18.30
2010,01,18,01,20,4.50
2010,01,18,01,21,11.30
2010,01,18,01,22,16.50
2010,01,18,01,23,15.50
2010,01,18,01,24,7.10
2010,01,18,01,25,11.40
2010,01,18,01,26,7.90
2010,01,18,01,27,5.60
2010,01,18,01,28,9.00
2010,01,18,01,29,15.80
2010,01,18,01,30,13.10
2010,01,18,01,31,10.50
2010,01,18,01,32,12.20
2010,01,18,01,33,11.70
2010,01,18,01,34,8.80
2010,01,18,01,35,11.80
2010,01,18,01,36,13.50
2010,01,18,01,37,14.10
2010,01,18,01,38,4.70
2010,01,18,01,39,10.90
2010,01,18,01,40,19.10
2010,01,18,01,41,19.10
2010,01,18,01,42,8.90
2010,01,18,01,43,9.10
2010,01,18,01,44,10.80
2010,01,18,01,45,13.80
2010,01,18,01,46,11.00
2010,01,18,01,47,16.60
2010,01,18,01,48,14.70
2010,01,18,01,49,10.40
2010,01,18,01,50,21.60
2010,01,18,01,51,8.30
2010,01,18,01,52,7.60
2010,01,18,01,53,28.00
2010,01,18,01,54,11.50
2010,01,18,01,55,15.40
2010,01,18,01,56,18.80
2010,01,18,01,57,13.40
2010,01,18,01,58,14.20
2010,01,18,01,59,20.10
2010,01,18,02,00,16.30
2010,01,18,02,01,13.40
2010,01,18,02,02,22.90
2010,01,18,02,03,26.50
2010,01,18,02,04,10.60
2010,01,18,02,05,13.10
2010,01,18,02,06,12.00
2010,01,18,02,07,29.10
2010,01,18,02,08,15.70
2010,01,18,02,09,9.70
2010,01,18,02,10,23.20
2010,01,18,02,11,18.80
2010,01,18,02,12,33.10
2010,01,18,02,13,24.60
2010,01,18,02,14,23.40
2010,01,18,02,15,15.30
2010,01,18,02,16,15.00
2010,01,18,02,17,17.70
2010,01,18,02,18,23.30
2010,01,18,02,19,19.40
2010,01,18,02,20,19.00
2010,01,18,02,21,20.80
2010,01,18,02,22,32.40
2010,01,18,02,23,16.30
2010,01,18,02,24,21.60
2010,01,18,02,25,8.40
2010,01,18,02,26,13.90
2010,01,18,02,27,15.00
2010,01,18,02,28,11.80
2010,01,18,02,29,17.10
2010,01,18,02,30,25.70
2010,01,18,02,31,26.10
2010,01,18,02,32,17.90
2010,01,18,02,33,18.50
2010,01,18,02,34,20.20
2010,01,18,02,35,16.90
2010,01,18,02,36,23.40
2010,01,18,02,37,21.50
2010,01,18,02,38,18.90
2010,01,18,02,39,18.50
2010,01,18,02,40,19.20
2010,01,18,02,41,13.10
2010,01,18,02,42,19.60
2010,01,18,02,43,36.80
2010,01,18,02,44,21.30
2010,01,18,03,02,20.10
2010,01,18,03,03,21.30
2010,01,18,03,04,21.40
2010,01,18,03,05,18.00
2010,01,18,03,06,18.20
2010,01,18,03,07,15.40
2010,01,18,03,08,7.60
2010,01,18,03,09,14.60
2010,01,18,03,10,20.60
2010,01,18,03,11,13.20
2010,01,18,03,12,18.90
2010,01,18,03,13,21.20
2010,01,18,03,14,11.90
2010,01,18,03,15,11.40
2010,01,18,03,16,22.90
2010,01,18,03,17,24.30
2010,01,18,03,18,22.20
2010,01,18,03,19,10.20
2010,01,18,03,20,8.80
2010,01,18,03,21,5.10
2010,01,18,03,22,18.60
2010,01,18,03,23,9.40
2010,01,18,03,24,20.00
2010,01,18,03,25,17.70
2010,01,18,03,26,21.90
2010,01,18,03,27,14.70
2010,01,18,03,28,30.60
2010,01,18,03,29,28.80
2010,01,18,03,30,31.30
2010,01,18,03,31,22.40
2010,01,18,03,32,10.20
2010,01,18,03,33,11.20
2010,01,18,03,34,14.40
2010,01,18,03,35,21.80
2010,01,18,03,36,16.70
2010,01,18,03,37,19.70
2010,01,18,03,38,22.40
2010,01,18,03,39,18.50
2010,01,18,03,40,12.50
2010,01,18,03,41,18.00
2010,01,18,03,42,14.00
2010,01,18,03,43,19.80
2010,01,18,03,44,11.40
2010,01,18,03,45,22.30
2010,01,18,03,46,32.00
2010,01,18,03,47,18.60
2010,01,18,03,48,8.30
2010,01,18,03,49,11.70
2010,01,18,03,50,6.10
2010,01,18,03,51,8.00
2010,01,18,03,52,11.40
2010,01,18,03,53,11.10
2010,01,18,03,54,15.30
2010,01,18,03,55,16.60
2010,01,18,03,56,17.00
2010,01,18,03,57,8.50
2010,01,18,03,58,7.60
2010,01,18,03,59,10.90
2010,01,18,04,00,21.50
2010,01,18,04,01,6.90
2010,01,18,04,02,14.10
2010,01,18,04,03,3.80
2010,01,18,04,04,3.70
2010,01,18,04,05,9.50
2010,01,18,04,06,24.90
2010,01,18,04,07,14.30
2010,01,18,04,08,11.60
2010,01,18,04,09,7.70
2010,01,18,04,10,7.20
2010,01,18,04,11,12.90
2010,01,18,04,12,27.60
2010,01,18,04,13,17.10
2010,01,18,04,14,15.40
2010,01,18,04,15,20.40
2010,01,18,04,16,8.20
2010,01,18,04,17,11.70
2010,01,18,04,18,12.20
2010,01,18,04,19,11.60
2010,01,18,04,20,15.70
2010,01,18,04,21,10.70
2010,01,18,04,22,8.10
2010,01,18,04,23,12.60
2010,01,18,04,24,14.40
2010,01,18,04,25,14.10
2010,01,18,04,26,9.70
2010,01,18,04,27,26.00
2010,01,18,04,28,15.00
2010,01,18,04,29,4.30
2010,01,18,04,30,5.30
2010,01,18,04,31,11.10
2010,01,18,04,32,6.80
2010,01,18,04,33,1.60
2010,01,18,04,34,8.70
2010,01,18,04,35,12.10
2010,01,18,04,36,13.70
2010,01,18,04,37,20.00
2010,01,18,04,38,6.10
2010,01,18,04,39,14.70
2010,01,18,04,40,8.20
2010,01,18,04,41,10.30
2010,01,18,04,42,10.50
2010,01,18,04,43,6.40
2010,01,18,04,44,17.20
2010,01,18,04,45,6.70
2010,01,18,04,46,10.00
2010,01,18,04,47,22.00
2010,01,18,04,48,14.00
2010,01,18,04,49,8.40
2010,01,18,04,50,17.30
2010,01,18,04,51,20.00
2010,01,18,04,52,17.80
2010,01,18,04,53,14.20
2010,01,18,04,54,10.30
2010,01,18,04,55,19.20
2010,01,18,04,56,16.60
2010,01,18,04,57,14.70
2010,01,18,04,58,5.80
2010,01,18,04,59,13.00
2010,01,18,05,00,13.50
2010,01,18,05,01,12.00
2010,01,18,05,02,23.70
2010,01,18,05,03,23.10
2010,01,18,05,04,21.70
2010,01,18,05,05,14.70
2010,01,18,05,06,16.50
2010,01,18,05,07,17.00
2010,01,18,05,08,21.70
2010,01,18,05,09,10.10
2010,01,18,05,10,18.30
2010,01,18,05,11,18.70
2010,01,18,05,12,15.60
2010,01,18,05,13,16.80
2010,01,18,05,14,17.50
2010,01,18,05,15,6.40
2010,01,18,05,16,13.40
2010,01,18,05,17,12.30
2010,01,18,05,18,12.00
2010,01,18,05,19,17.60
2010,01,18,05,20,17.00
2010,01,18,05,21,19.40
2010,01,18,05,22,19.90
2010,01,18,05,23,14.10
2010,01,18,05,24,24.80
2010,01,18,05,25,17.20
2010,01,18,05,26,12.50
2010,01,18,05,27,16.90
2010,01,18,05,28,20.70
2010,01,18,05,29,9.00
2010,01,18,05,30,11.30
2010,01,18,05,31,20.80
2010,01,18,05,32,12.80
2010,01,18,05,33,13.70
2010,01,18,05,34,11.30
2010,01,18,05,35,10.60
2010,01,18,05,36,17.00
2010,01,18,05,37,20.90
2010,01,18,05,38,15.70
2010,01,18,05,39,18.70
2010,01,18,05,40,24.00
2010,01,18,05,41,21.10
2010,01,18,05,42,13.00
2010,01,18,05,43,18.90
2010,01,18,05,44,22.40
2010,01,18,05,45,11.90
2010,01,18,05,46,14.90
2010,01,18,05,47,10.70
2010,01,18,05,48,14.80
2010,01,18,05,49,15.30
2010,01,18,05,50,9.90
2010,01,18,05,51,16.50
2010,01,18,05,52,15.00
2010,01,18,05,53,17.00
2010,01,18,05,54,13.50
2010,01,18,05,55,7.40
2010,01,18,05,56,7.90
2010,01,18,05,57,8.00
2010,01,18,05,58,13.60
2010,01,18,05,59,4.10
2010,01,18,06,00,11.30
2010,01,18,06,01,17.00
2010,01,18,06,02,12.80
2010,01,18,06,03,14.20
2010,01,18,06,04,4.60
2010,01,18,06,05,4.90
2010,01,18,06,06,17.30
2010,01,18,06,07,7.00
2010,01,18,06,08,4.30
2010,01,18,06,09,10.70
2010,01,18,06,10,6.80
2010,01,18,06,11,16.50
2010,01,18,06,12,17.00
2010,01,18,06,13,9.90
2010,01,18,06,14,10.70
2010,01,18,06,15,5.80
2010,01,18,06,16,7.40
2010,01,18,06,17,13.40
2010,01,18,06,18,11.50
2010,01,18,06,19,6.00
2010,01,18,06,20,5.60
2010,01,18,06,21,7.80
2010,01,18,06,22,11.30
2010,01,18,06,23,11.00
2010,01,18,06,24,8.60
2010,01,18,06,25,13.20
2010,01,18,06,26,7.90
2010,01,18,06,27,13.60
2010,01,18,06,28,12.60
2010,01,18,06,29,6.90
2010,01,18,06,30,5.60
2010,01,18,06,31,12.90
2010,01,18,06,32,8.90
2010,01,18,06,33,13.10
2010,01,18,06,34,7.60
2010,01,18,06,35,8.70
2010,01,18,06,36,7.20
2010,01,18,06,37,15.30
2010,01,18,06,38,10.50
2010,01,18,06,39,7.40
2010,01,18,06,40,11.10
2010,01,18,06,41,8.00
2010,01,18,06,42,12.30
2010,01,18,06,43,12.60
2010,01,18,06,44,9.50
2010,01,18,06,45,11.00
2010,01,18,06,46,13.50
2010,01,18,06,47,16.90
2010,01,18,06,48,7.00
2010,01,18,06,49,13.30
2010,01,18,06,50,11.50
2010,01,18,06,51,7.20
2010,01,18,06,52,16.70
2010,01,18,06,53,14.40
2010,01,18,06,54,9.60
2010,01,18,06,55,7.00
2010,01,18,06,56,8.40
2010,01,18,06,57,13.90
2010,01,18,06,58,10.70
2010,01,18,06,59,13.10
2010,01,18,07,00,8.70
2010,01,18,07,01,10.40
2010,01,18,07,02,8.90
2010,01,18,07,03,9.90
2010,01,18,07,04,4.70
2010,01,18,07,05,11.30
2010,01,18,07,06,10.80
2010,01,18,07,07,9.20
2010,01,18,07,08,4.80
2010,01,18,07,09,10.70
2010,01,18,07,10,17.00
2010,01,18,07,11,11.60
2010,01,18,07,12,11.70
2010,01,18,07,13,10.90
2010,01,18,07,14,13.50
2010,01,18,07,15,6.60
2010,01,18,07,16,6.50
2010,01,18,07,17,6.80
2010,01,18,07,18,9.40
2010,01,18,07,19,12.40
2010,01,18,07,20,14.10
2010,01,18,07,21,6.60
2010,01,18,07,22,5.00
2010,01,18,07,23,10.80
2010,01,18,07,24,8.50
2010,01,18,07,25,11.50
2010,01,18,07,26,13.60
2010,01,18,07,27,5.80
2010,01,18,07,28,11.70
2010,01,18,07,29,11.10
2010,01,18,07,30,10.50
2010,01,18,07,31,9.30
2010,01,18,07,32,7.20
2010,01,18,07,33,3.50
2010,01,18,07,34,7.20
2010,01,18,07,35,7.30
2010,01,18,07,36,8.00
2010,01,18,07,37,13.60
2010,01,18,07,38,9.00
2010,01,18,07,39,7.40
2010,01,18,07,40,6.20
2010,01,18,07,41,6.40
2010,01,18,07,42,12.40
2010,01,18,07,43,14.60
2010,01,18,07,44,6.70
2010,01,18,07,45,1.80
2010,01,18,07,46,10.60
2010,01,18,07,47,11.80
2010,01,18,07,48,7.60
2010,01,18,07,49,3.10
2010,01,18,07,50,17.70
2010,01,18,07,51,4.70
2010,01,18,07,52,6.40
2010,01,18,07,53,5.30
2010,01,18,07,54,8.60
2010,01,18,07,55,9.20
2010,01,18,07,56,6.70
2010,01,18,07,57,8.00
2010,01,18,07,58,8.20
2010,01,18,07,59,4.10
2010,01,18,08,00,7.10
2010,01,18,08,01,5.60
2010,01,18,08,02,3.90
2010,01,18,08,03,4.90
2010,01,18,08,04,4.60
2010,01,18,08,05,7.50
2010,01,18,08,06,8.30
2010,01,18,08,07,7.40
2010,01,18,08,08,5.20
2010,01,18,08,09,12.90
2010,01,18,08,10,9.10
2010,01,18,08,11,7.90
2010,01,18,08,12,8.70
2010,01,18,08,13,9.30
2010,01,18,08,14,6.40
2010,01,18,08,15,9.30
2010,01,18,08,16,8.40
2010,01,18,08,17,5.40
2010,01,18,08,18,0.50
2010,01,18,08,19,8.10
2010,01,18,08,20,11.50
2010,01,18,08,21,8.40
2010,01,18,08,22,1.60
2010,01,18,08,23,7.30
2010,01,18,08,24,7.90
2010,01,18,08,25,5.50
2010,01,18,08,26,9.10
2010,01,18,08,27,6.40
2010,01,18,08,28,4.70
2010,01,18,08,29,6.70
2010,01,18,08,30,9.70
2010,01,18,08,31,7.20
2010,01,18,08,32,3.90
2010,01,18,08,33,4.30
2010,01,18,08,34,6.00
2010,01,18,08,35,4.70
2010,01,18,08,36,6.00
2010,01,18,08,37,2.50
2010,01,18,08,38,0.10
2010,01,18,08,39,4.20
2010,01,18,08,40,18.70
2010,01,18,08,41,9.30
2010,01,18,08,42,0.80
2010,01,18,08,43,3.10
2010,01,18,08,44,5.10
2010,01,18,08,45,5.50
2010,01,18,08,46,6.40
2010,01,18,08,47,5.30
2010,01,18,08,48,2.70
2010,01,18,08,49,7.30
2010,01,18,08,50,3.70
2010,01,18,08,51,5.50
2010,01,18,08,52,4.60
2010,01,18,08,53,6.30
2010,01,18,08,54,3.20
2010,01,18,08,55,3.80
2010,01,18,08,56,5.20
2010,01,18,08,57,1.30
2010,01,18,08,58,0.70
2010,01,18,08,59,1.80
2010,01,18,09,00,4.70
2010,01,18,09,01,2.40
2010,01,18,09,02,2.80
2010,01,18,09,03,6.60
2010,01,18,09,04,6.90
2010,01,18,09,05,4.50
2010,01,18,09,06,9.10
2010,01,18,09,07,4.70
2010,01,18,09,08,15.20
2010,01,18,09,09,7.30
2010,01,18,09,10,9.10
2010,01,18,09,11,4.80
2010,01,18,09,12,3.70
2010,01,18,09,13,6.30
2010,01,18,09,14,12.10
2010,01,18,09,15,12.60
2010,01,18,09,16,11.80
2010,01,18,09,17,12.10
2010,01,18,09,18,1.20
2010,01,18,09,19,4.30
2010,01,18,09,20,7.40
2010,01,18,09,21,1.50
2010,01,18,09,22,1.80
2010,01,18,09,23,0.90
2010,01,18,09,24,7.50
2010,01,18,09,25,5.80
2010,01,18,09,26,6.30
2010,01,18,09,27,5.30
2010,01,18,09,28,0.70
2010,01,18,09,29,1.30
2010,01,18,09,30,5.40
2010,01,18,09,31,4.70
2010,01,18,09,32,2.90
2010,01,18,09,33,2.30
2010,01,18,09,34,4.00
2010,01,18,09,35,3.30
2010,01,18,09,36,3.20
2010,01,18,09,37,2.10
2010,01,18,09,38,6.40
2010,01,18,09,39,14.80
2010,01,18,09,40,14.90
2010,01,18,09,41,10.50
2010,01,18,09,42,3.10
2010,01,18,09,43,6.20
2010,01,18,09,44,7.20
2010,01,18,09,45,7.40
2010,01,18,09,46,3.80
2010,01,18,09,47,5.50
2010,01,18,09,48,7.30
2010,01,18,09,49,9.30
2010,01,18,09,50,9.20
2010,01,18,09,51,2.30
2010,01,18,09,52,0.20
2010,01,18,09,53,0.70
2010,01,18,09,54,3.40
2010,01,18,09,55,5.50
2010,01,18,09,56,9.60
2010,01,18,09,57,9.50
2010,01,18,09,58,5.30
2010,01,18,09,59,9.90
2010,01,18,10,00,3.80
2010,01,18,10,01,5.10
2010,01,18,10,02,11.40
2010,01,18,10,03,5.60
2010,01,18,10,04,5.40
2010,01,18,10,05,13.40
2010,01,18,10,06,5.80
2010,01,18,10,07,2.70
2010,01,18,10,08,4.30
2010,01,18,10,09,1.50
2010,01,18,10,10,3.10
2010,01,18,10,11,5.70
2010,01,18,10,12,7.80
2010,01,18,10,13,9.60
2010,01,18,10,14,11.00
2010,01,18,10,15,6.40
2010,01,18,10,16,8.10
2010,01,18,10,17,9.30
2010,01,18,10,18,7.50
2010,01,18,10,19,6.70
2010,01,18,10,20,4.30
2010,01,18,10,21,1.30
2010,01,18,10,22,2.90
2010,01,18,10,23,1.30
2010,01,18,10,24,2.20
2010,01,18,10,25,3.30
2010,01,18,10,26,6.40
2010,01,18,10,27,4.80
2010,01,18,10,28,4.10
2010,01,18,10,29,5.80
2010,01,18,10,30,4.50
2010,01,18,10,31,4.00
2010,01,18,10,32,4.40
2010,01,18,10,33,4.10
2010,01,18,10,34,3.60
2010,01,18,10,35,2.80
2010,01,18,10,36,2.40
2010,01,18,10,37,2.80
2010,01,18,10,38,1.20
2010,01,18,10,39,2.50
2010,01,18,10,40,13.10
2010,01,18,10,41,6.50
2010,01,18,10,42,7.30
2010,01,18,10,43,7.90
2010,01,18,10,44,5.40
2010,01,18,10,45,6.00
2010,01,18,10,46,5.80
2010,01,18,10,47,9.10
2010,01,18,10,48,3.00
2010,01,18,10,49,7.10
2010,01,18,10,50,17.50
2010,01,18,10,51,7.80
2010,01,18,10,52,3.30
2010,01,18,10,53,5.50
2010,01,18,10,54,8.80
2010,01,18,10,55,5.50
2010,01,18,10,56,5.20
2010,01,18,10,57,5.20
2010,01,18,10,58,5.90
2010,01,18,10,59,2.90
2010,01,18,11,00,9.70
2010,01,18,11,01,6.90
2010,01,18,11,02,6.40
2010,01,18,11,03,11.00
2010,01,18,11,04,12.50
2010,01,18,11,05,4.70
2010,01,18,11,06,4.40
2010,01,18,11,07,8.90
2010,01,18,11,08,4.10
2010,01,18,11,09,1.20
2010,01,18,11,10,7.00
2010,01,18,11,11,3.50
2010,01,18,11,12,0.00
2010,01,18,11,13,0.10
2010,01,18,11,14,3.40
2010,01,18,11,15,6.10
2010,01,18,11,16,4.90
2010,01,18,11,17,5.50
2010,01,18,11,18,4.00
2010,01,18,11,19,2.10
2010,01,18,11,20,4.70
2010,01,18,11,21,7.40
2010,01,18,11,22,6.20
2010,01,18,11,23,8.60
2010,01,18,11,24,7.10
2010,01,18,11,25,2.60
2010,01,18,11,26,6.70
2010,01,18,11,27,6.00
2010,01,18,11,28,6.10
2010,01,18,11,29,3.10
2010,01,18,11,30,1.60
2010,01,18,11,31,1.50
2010,01,18,11,32,2.30
2010,01,18,11,33,2.90
2010,01,18,11,34,3.60
2010,01,18,11,35,3.60
2010,01,18,11,36,2.50
2010,01,18,11,37,2.70
2010,01,18,11,38,2.50
2010,01,18,11,39,2.70
2010,01,18,11,40,4.20
2010,01,18,11,41,1.20
2010,01,18,11,42,0.30
2010,01,18,11,43,1.80
2010,01,18,11,44,3.40
2010,01,18,11,45,0.60
2010,01,18,11,46,2.70
2010,01,18,11,47,1.30
2010,01,18,11,48,0.40
2010,01,18,11,49,0.10
2010,01,18,11,50,0.30
2010,01,18,11,51,0.60
2010,01,18,11,52,0.20
2010,01,18,11,53,0.20
2010,01,18,11,54,0.10
2010,01,18,11,55,0.10
2010,01,18,11,56,0.20
2010,01,18,11,57,0.00
2010,01,18,11,58,0.00
2010,01,18,11,59,0.00
2010,01,18,12,00,0.00
2010,01,18,12,01,0.00
2010,01,18,12,02,0.00
2010,01,18,12,03,0.40
2010,01,18,12,04,0.10
2010,01,18,12,05,0.60
2010,01,18,12,06,1.80
2010,01,18,12,07,1.00
2010,01,18,12,08,0.80
2010,01,18,12,09,0.10
2010,01,18,12,10,0.10
2010,01,18,12,11,0.10
2010,01,18,12,12,4.60
2010,01,18,12,13,5.40
2010,01,18,12,14,4.50
2010,01,18,12,15,2.20
2010,01,18,12,16,0.00
2010,01,18,12,17,1.50
2010,01,18,12,18,6.30
2010,01,18,12,19,1.50
2010,01,18,12,20,1.20
2010,01,18,12,21,2.30
2010,01,18,12,22,0.90
2010,01,18,12,23,2.30
2010,01,18,12,24,5.20
2010,01,18,12,25,2.00
2010,01,18,12,26,2.60
2010,01,18,12,27,0.80
2010,01,18,12,28,0.70
2010,01,18,12,29,1.80
2010,01,18,12,30,0.50
2010,01,18,12,31,2.30
2010,01,18,12,32,9.00
2010,01,18,12,33,4.20
2010,01,18,12,34,1.80
2010,01,18,12,35,2.60
2010,01,18,12,36,4.90
2010,01,18,12,37,4.10
2010,01,18,12,38,2.70
2010,01,18,12,39,1.60
2010,01,18,12,40,4.20
2010,01,18,12,41,6.60
2010,01,18,12,42,6.90
2010,01,18,12,43,12.10
2010,01,18,12,44,6.30
2010,01,18,12,45,4.30
2010,01,18,12,46,1.90
2010,01,18,12,47,4.00
2010,01,18,12,48,6.90
2010,01,18,12,49,3.20
2010,01,18,12,50,6.20
2010,01,18,12,51,3.50
2010,01,18,12,52,2.40
2010,01,18,12,53,2.80
2010,01,18,12,54,4.10
2010,01,18,12,55,1.50
2010,01,18,12,56,4.20
2010,01,18,12,57,3.10
2010,01,18,12,58,1.60
2010,01,18,12,59,1.30
2010,01,18,13,00,0.50
2010,01,18,13,01,1.20
2010,01,18,13,02,1.10
2010,01,18,13,03,2.00
2010,01,18,13,04,3.80
2010,01,18,13,05,2.80
2010,01,18,13,06,1.30
2010,01,18,13,07,1.80
2010,01,18,13,08,2.10
2010,01,18,13,09,1.70
2010,01,18,13,10,2.50
2010,01,18,13,11,0.60
2010,01,18,13,12,0.50
2010,01,18,13,13,0.10
2010,01,18,13,14,1.10
2010,01,18,13,15,0.40
2010,01,18,13,16,0.30
2010,01,18,13,17,0.00
2010,01,18,13,18,0.10
2010,01,18,13,19,0.10
2010,01,18,13,20,0.00
2010,01,18,13,21,0.00
2010,01,18,13,22,0.20
2010,01,18,13,23,0.20
2010,01,18,13,24,0.00
2010,01,18,13,25,0.00
2010,01,18,13,26,0.30
2010,01,18,13,27,0.00
2010,01,18,13,28,0.10
2010,01,18,13,29,1.50
2010,01,18,13,30,0.00
2010,01,18,13,31,0.20
2010,01,18,13,32,2.40
2010,01,18,13,33,4.00
2010,01,18,13,34,1.50
2010,01,18,13,35,0.00
2010,01,18,13,36,0.20
2010,01,18,13,37,0.00
2010,01,18,13,38,0.20
2010,01,18,13,39,0.10
2010,01,18,13,40,1.10
2010,01,18,13,41,2.10
2010,01,18,13,42,1.50
2010,01,18,13,43,1.20
2010,01,18,13,44,1.50
2010,01,18,13,45,0.80
2010,01,18,13,46,0.20
2010,01,18,13,47,0.00
2010,01,18,13,48,0.00
2010,01,18,13,49,0.00
2010,01,18,13,50,0.00
2010,01,18,13,51,0.00
2010,01,18,13,52,0.00
2010,01,18,13,53,0.10
2010,01,18,13,54,0.20
2010,01,18,13,55,0.10
2010,01,18,13,56,0.10
2010,01,18,13,57,0.30
2010,01,18,13,58,0.10
2010,01,18,13,59,0.00
2010,01,18,14,00,0.20
2010,01,18,14,01,0.10
2010,01,18,14,02,0.30
2010,01,18,14,03,0.00
2010,01,18,14,04,0.30
2010,01,18,14,05,0.10
2010,01,18,14,06,0.00
2010,01,18,14,07,0.10
2010,01,18,14,08,0.00
2010,01,18,14,09,0.00
2010,01,18,14,10,0.00
2010,01,18,14,11,0.00
2010,01,18,14,12,0.00
2010,01,18,14,13,0.10
2010,01,18,14,14,0.20
2010,01,18,14,15,0.10
2010,01,18,14,16,0.10
2010,01,18,14,17,0.10
2010,01,18,14,18,0.10
2010,01,18,14,19,0.10
2010,01,18,14,20,0.70
2010,01,18,14,21,1.40
2010,01,18,14,22,1.80
2010,01,18,14,23,1.40
2010,01,18,14,24,1.00
2010,01,18,14,25,0.00
2010,01,18,14,26,0.00
2010,01,18,14,27,0.00
2010,01,18,14,28,0.10
2010,01,18,14,29,0.20
2010,01,18,14,30,0.70
2010,01,18,14,31,0.40
2010,01,18,14,32,0.20
2010,01,18,14,33,0.10
2010,01,18,14,34,0.00
2010,01,18,14,35,0.00
2010,01,18,14,36,0.00
2010,01,18,14,37,0.00
2010,01,18,14,38,0.00
2010,01,18,14,39,0.00
2010,01,18,14,40,0.00
2010,01,18,14,41,0.00
2010,01,18,14,42,0.00
2010,01,18,14,43,0.00
2010,01,18,14,44,0.00
2010,01,18,14,45,0.00
2010,01,18,14,46,0.00
2010,01,18,14,47,0.10
2010,01,18,14,48,0.00
2010,01,18,14,49,0.30
2010,01,18,14,50,0.10
2010,01,18,14,51,1.30
2010,01,18,14,52,2.80
2010,01,18,14,53,2.10
2010,01,18,14,54,2.50
2010,01,18,14,55,1.60
2010,01,18,14,56,0.20
2010,01,18,14,57,0.10
2010,01,18,14,58,0.70
2010,01,18,14,59,1.30
2010,01,18,15,00,0.80
2010,01,18,15,01,0.20
2010,01,18,15,02,0.10
2010,01,18,15,03,0.20
2010,01,18,15,04,0.10
2010,01,18,15,05,0.10
2010,01,18,15,06,0.00
2010,01,18,15,07,0.00
2010,01,18,15,08,0.00
2010,01,18,15,09,0.00
2010,01,18,15,10,0.00
2010,01,18,15,11,0.00
2010,01,18,15,12,0.00
2010,01,18,15,13,0.00
2010,01,18,15,14,0.30
2010,01,18,15,15,0.30
2010,01,18,15,16,2.30
2010,01,18,15,17,1.50
2010,01,18,15,18,1.30
2010,01,18,15,19,1.10
2010,01,18,15,20,0.10
2010,01,18,15,21,0.10
2010,01,18,15,22,0.10
2010,01,18,15,23,0.10
2010,01,18,15,24,0.10
2010,01,18,15,25,0.10
2010,01,18,15,26,0.10
2010,01,18,15,27,0.20
2010,01,18,15,28,0.10
2010,01,18,15,29,0.10
2010,01,18,15,30,0.00
2010,01,18,15,31,0.00
2010,01,18,15,32,0.10
2010,01,18,15,33,0.00
2010,01,18,15,34,0.00
2010,01,18,15,35,0.00
2010,01,18,15,36,0.10
2010,01,18,15,37,0.00
2010,01,18,15,38,0.00
2010,01,18,15,39,0.10
2010,01,18,15,40,0.10
2010,01,18,15,41,0.10
2010,01,18,15,42,0.10
2010,01,18,15,43,0.70
2010,01,18,15,44,0.10
2010,01,18,15,45,0.10
2010,01,18,15,46,0.00
2010,01,18,15,47,0.00
2010,01,18,15,48,0.10
2010,01,18,15,49,0.20
2010,01,18,15,50,1.80
2010,01,18,15,51,1.80
2010,01,18,15,52,0.40
2010,01,18,15,53,1.00
2010,01,18,15,54,0.20
2010,01,18,15,55,0.00
2010,01,18,15,56,0.00
2010,01,18,15,57,0.00
2010,01,18,15,58,0.00
2010,01,18,15,59,0.20
2010,01,18,16,00,0.00
2010,01,18,16,01,0.20
2010,01,18,16,02,0.30
2010,01,18,16,03,1.20
2010,01,18,16,04,1.00
2010,01,18,16,05,0.30
2010,01,18,16,06,0.20
2010,01,18,16,07,0.00
2010,01,18,16,08,0.10
2010,01,18,16,09,0.10
2010,01,18,16,10,1.00
2010,01,18,16,11,2.70
2010,01,18,16,12,2.90
2010,01,18,16,13,1.80
2010,01,18,16,14,0.30
2010,01,18,16,15,0.00
2010,01,18,16,16,0.30
2010,01,18,16,17,1.00
2010,01,18,16,18,1.70
2010,01,18,16,19,2.00
2010,01,18,16,20,2.00
2010,01,18,16,21,1.10
2010,01,18,16,22,0.30
2010,01,18,16,23,1.90
2010,01,18,16,24,1.70
2010,01,18,16,25,1.60
2010,01,18,16,26,1.00
2010,01,18,16,27,1.10
2010,01,18,16,28,0.90
2010,01,18,16,29,1.50
2010,01,18,16,30,1.60
2010,01,18,16,31,1.20
2010,01,18,16,32,1.30
2010,01,18,16,33,2.10
2010,01,18,16,34,1.40
2010,01,18,16,35,1.00
2010,01,18,16,36,0.90
2010,01,18,16,37,0.80
2010,01,18,16,38,0.40
2010,01,18,16,39,0.40
2010,01,18,16,40,0.20
2010,01,18,16,41,0.20
2010,01,18,16,42,0.40
2010,01,18,16,43,0.60
2010,01,18,16,44,0.60
2010,01,18,16,45,0.40
2010,01,18,16,46,0.40
2010,01,18,16,47,0.20
2010,01,18,16,48,0.00
2010,01,18,16,49,0.00
2010,01,18,16,50,0.00
2010,01,18,16,51,0.00
2010,01,18,16,52,0.10
2010,01,18,16,53,0.20
2010,01,18,16,54,1.80
2010,01,18,16,55,0.50
2010,01,18,16,56,0.00
2010,01,18,16,57,0.00
2010,01,18,16,58,0.10
2010,01,18,16,59,0.00
2010,01,18,17,00,0.00
2010,01,18,17,01,0.00
2010,01,18,17,02,0.00
2010,01,18,17,03,0.60
2010,01,18,17,04,0.00
2010,01,18,17,05,0.00
2010,01,18,17,06,0.00
2010,01,18,17,07,0.00
2010,01,18,17,08,0.00
2010,01,18,17,09,0.30
2010,01,18,17,10,0.00
2010,01,18,17,11,0.10
2010,01,18,17,12,1.10
2010,01,18,17,13,0.30
2010,01,18,17,14,0.10
2010,01,18,17,15,0.00
2010,01,18,17,16,0.40
2010,01,18,17,17,0.00
2010,01,18,17,18,0.00
2010,01,18,17,19,0.00
2010,01,18,17,20,0.40
2010,01,18,17,21,0.50
2010,01,18,17,22,0.00
2010,01,18,17,23,0.00
2010,01,18,17,24,0.40
2010,01,18,17,25,0.00
2010,01,18,17,26,0.00
2010,01,18,17,27,0.00
2010,01,18,17,28,0.10
2010,01,18,17,29,0.10
2010,01,18,17,30,0.00
2010,01,18,17,31,0.00
2010,01,18,17,32,0.10
2010,01,18,17,33,0.10
2010,01,18,17,34,0.10
2010,01,18,17,35,0.00
2010,01,18,17,36,0.40
2010,01,18,17,37,0.60
2010,01,18,17,38,0.00
2010,01,18,17,39,0.00
2010,01,18,17,40,0.00
2010,01,18,17,41,0.00
2010,01,18,17,42,0.30
2010,01,18,17,43,0.00
2010,01,18,17,44,0.00
2010,01,18,17,45,0.00
2010,01,18,17,46,0.30
2010,01,18,17,47,0.20
2010,01,18,17,48,0.20
2010,01,18,17,49,0.20
2010,01,18,17,50,0.10
2010,01,18,17,51,0.00
2010,01,18,17,52,0.30
2010,01,18,17,53,0.10
2010,01,18,17,54,0.10
2010,01,18,17,55,0.10
2010,01,18,17,56,0.10
2010,01,18,17,57,0.10
2010,01,18,17,58,0.00
2010,01,18,17,59,0.10
2010,01,18,18,00,1.60
2010,01,18,18,01,0.80
2010,01,18,18,02,0.10
2010,01,18,18,03,0.30
2010,01,18,18,04,0.50
2010,01,18,18,05,0.00
2010,01,18,18,06,1.70
2010,01,18,18,07,1.80
2010,01,18,18,08,0.30